Вернуться в каталог

SPOT 7

АктивенНаукаSSO
NORAD 40053·PAYLOAD·🇦🇿 Azerbaijan

Запущен Jun 30, 2014 с Satish Dhawan Space Centre

Loading…

Ближайшие Пролёты (ближайшие 24 часа)

TLE

СвежийSource: Space-Track

Эпоха: Sep 14, 2026, 15:01 UTC

1 40053U 14034A   26257.62620993  .00000272  00000-0  64662-4 0  9992
2 40053  98.0543 317.7755 0001217  76.6439 283.4898 14.61020765650199

Отслеживайте SPOT 7 в реальном времени с AllMySat

Download on the App Store